Location: Ballingbuur
(53.0000°N, 5.7667°E)
Time: 06:52:02
(UTC+00:00)

Meteor 1-27 Rocket - Pass Details

Date: 29 November 2020
Orbit: 830 x 909 km, 81.3° (Epoch: 23 January)

Event Time Altitude Azimuth Distance (km) Brightness Sun altitude
Rises 05:09:07 0° 347° (NNW) 3,461 6.7 -19.4°
Reaches altitude 10° 05:11:34 10° 351° (N) 2,531 6.0 -19.1°
Maximum altitude 05:17:18 64° 73° (ENE) 981 4.2 -18.2°
Drops below altitude 10° 05:23:06 10° 155° (SSE) 2,564 6.7 -17.4°
Sets 05:25:36 0° 158° (SSE) 3,509 7.4 -17.0°
